Home   Weather   Perm   Past weeks

Flag for Russia Past Weather in Perm, Russia — Yesterday and Last 2 Weeks

Now
3 °F

Light snow. Partly sunny.


Feels Like: -8 °F
Forecast: -14 / -7 °F
Wind: 6 mph from North

Location: Perm'/Bolshoe Savino

Current Time: Dec 7, 2016 at 5:29:40 pm

Latest Report: Dec 7, 2016 at 5:00 pm


Visibility: 2 mi

Pressure: 29.62 "Hg

Humidity: 92%

Dew Point: 1 °F

Location of PermLocation

Past Weather in Perm — Graph

°F

Perm Temperature Yesterday

Maximum temperature yesterday: 16 °F (at 3:30 pm)
Minimum temperature yesterday: 5 °F (at 1:00 am)
Average temperature yesterday: 12 °F

High & Low Weather Summary for the Past Weeks

 TemperatureHumidityPressure
High36 °F (Nov 29, 6:00 am)100% (Nov 24, 11:00 pm)30.54 "Hg (Nov 24, 11:00 pm)
Low-4 °F (Dec 2, 6:30 am)54% (Nov 22, 4:30 pm)29.30 "Hg (Nov 29, 9:30 am)
Average16 °F86%29.77 "Hg
* Reported Nov 22 4:00 pm — Dec 7 4:00 pm, Perm, Weather by CustomWeather, © 2016

Note: Actual official high and low records may vary slightly from our data, if they occured in-between our weather recording intervals... More about our weather records

Advertising

Perm Weather History for the Previous 24 Hours

Scroll right to see more
 ConditionsComfort  
Time TempWeatherWind HumidityBarometerVisibility
4:00 pm
Wed, Dec 7
5 °FLight snow. Partly sunny.8 mph85%29.59 "Hg1 mi
3:30 pm7 °FLight snow. Partly sunny.6 mph85%29.56 "Hg1 mi
3:00 pm7 °FSnow. Partly sunny.6 mph85%29.56 "Hg1 mi
2:00 pm9 °FSnow. Partly sunny.6 mph92%29.56 "Hg1 mi
1:30 pm9 °FLight snow. Partly sunny.8 mph92%29.53 "Hg1 mi
1:00 pm10 °FLight snow. Partly sunny.8 mph92%29.53 "Hg2 mi
12:30 pm14 °FLight snow. Partly sunny.6 mph92%29.53 "Hg1 mi
12:00 pm14 °FCold.6 mph92%29.53 "Hg1 mi
11:30 am16 °FSnow. Partly sunny.6 mph93%29.50 "Hg1 mi
11:00 am16 °FCold.6 mph93%29.50 "Hg1 mi
10:30 am16 °FHeavy snow. Ice fog.3 mph100%29.50 "Hg1 mi
10:00 am16 °FCold.1 mph100%29.47 "Hg1 mi
9:30 am16 °FLight snow. Passing clouds.3 mph93%29.47 "Hg2 mi
9:00 am16 °FSnow. Passing clouds.3 mph100%29.47 "Hg1 mi
8:30 am16 °FHeavy snow. Ice fog.6 mph100%29.47 "Hg1 mi
8:00 am16 °FCold.6 mph100%29.47 "Hg1 mi
7:30 am16 °FCold.6 mph100%29.45 "Hg1 mi
7:00 am16 °FSnow. Passing clouds.6 mph100%29.45 "Hg1 mi
6:30 am16 °FHeavy snow. Passing clouds.6 mph93%29.45 "Hg1 mi
6:00 am16 °FCold.6 mph93%29.45 "Hg1 mi
5:30 am16 °FCold.6 mph93%29.45 "Hg1 mi
5:00 am16 °FCold.6 mph93%29.45 "Hg1 mi
4:30 am16 °FSnow. Passing clouds.6 mph93%29.45 "Hg1 mi
4:00 am16 °FLight snow. Passing clouds.6 mph93%29.45 "Hg2 mi
3:30 am16 °FLight snow. Passing clouds.6 mph93%29.45 "Hg2 mi
3:00 am16 °FLight snow. Passing clouds.6 mph93%29.45 "Hg2 mi
2:30 am16 °FLight snow. Passing clouds.3 mph93%29.45 "Hg2 mi
1:00 am16 °FLight snow. Passing clouds.6 mph93%29.42 "Hg4 mi
12:30 am16 °FLight snow. Passing clouds.3 mph93%29.42 "Hg1 mi
11:00 pm
Tue, Dec 6
14 °FLight snow. Passing clouds.3 mph92%29.42 "Hg3 mi
10:30 pm14 °FLight snow. Passing clouds.3 mph92%29.42 "Hg2 mi
10:00 pm14 °FLight snow. Passing clouds.6 mph85%29.39 "Hg5 mi
9:30 pm16 °FLight snow. Passing clouds.6 mph86%29.39 "Hg3 mi
9:00 pm16 °FLight snow. Passing clouds.6 mph86%29.39 "Hg6 mi
8:30 pm16 °FLight snow. Passing clouds.8 mph93%29.39 "Hg3 mi
8:00 pm16 °FLight snow. Passing clouds.6 mph86%29.39 "Hg2 mi
7:30 pm16 °FLight snow. Passing clouds.8 mph86%29.39 "Hg3 mi
7:00 pm16 °FLight snow. Passing clouds.8 mph86%29.39 "Hg3 mi
6:30 pm16 °FLight snow. Passing clouds.8 mph79%29.36 "Hg3 mi
6:00 pm16 °FLight snow. Passing clouds.10 mph86%29.36 "Hg3 mi
5:30 pm16 °FLight snow. Passing clouds.8 mph86%29.36 "Hg3 mi
5:00 pm16 °FLight snow. Partly sunny.8 mph86%29.36 "Hg3 mi
Weather by CustomWeather, © 2016

See weather overviewHow to use our weather pages